Regional Weather Roundup
Issued by NWS

Home | Current Version | Previous Version | Text Only | Print | Product List | Glossary On
Versions: 1 2 3 4 5 6 7 8 9 10 11 12 13 14 15 16 17 18 19 20 21 22 23 24 25 26 27 28 29 30 31 32 33 34 35 36 37 38 39 40 41 42 43 44 45 46 47 48 49 50
000
ASUS43 KLSX 130057
RWRMO

WEATHER SUMMARY FOR MISSOURI
NATIONAL WEATHER SERVICE SPRINGFIELD MO
700 PM CST TUE DEC 12 2017

NOTE: "FAIR" INDICATES FEW OR NO CLOUDS BELOW 12,000 FEET WITH NO
       SIGNIFICANT WEATHER AND/OR OBSTRUCTIONS TO VISIBILITY.
       CURRENT SKY AND/OR WEATHER CONDITIONS ARE NOT AVAILABLE FOR
       CHILLICOTHE AND FARMINGTON.

MOZ001>031-035>038-043-044-053-054-130200-
...NORTHERN AND WESTERN MISSOURI...

CITY           SKY/WX    TMP DP  RH WIND       PRES   REMARKS
KANSAS CTY INT PTCLDY    30  21  69 S8        30.08F WCI  22
LEE`S SUMMIT   CLOUDY    35  22  58 S5        30.10F
ST JOSEPH      CLOUDY    31  24  75 S6        30.06F WCI  25
CHILLICOTHE      N/A     28  18  66 CALM      30.10F

$$
MOZ066>068-077>081-088>096-101>105-130200-
...SOUTHWEST MISSOURI...

CITY           SKY/WX    TMP DP  RH WIND       PRES   REMARKS
SPRINGFIELD    CLOUDY    30   9  41 W6        30.14F WCI  24
JOPLIN         CLOUDY    33  18  53 S6        30.17F WCI  28
BRANSON        CLEAR     36   9  32 NW9       30.17S WCI  29

$$
MOZ032>034-039>042-045>050-055>058-069>072-130200-
...CENTRAL MISSOURI...

CITY           SKY/WX    TMP DP  RH WIND       PRES   REMARKS
COLUMBIA       NOT AVBL
JEFFERSON CITY CLOUDY    33   6  32 CALM      30.14F
ROLLA          CLOUDY    28   7  41 W7        30.12F WCI  21
SEDALIA        CLOUDY    31  11  43 SW7       30.13F WCI  24
WARRENSBURG    CLOUDY    30  19  64 S6        30.11F WCI  24

$$
MOZ051-052-059>065-130200-
...EAST CENTRAL MISSOURI...

CITY           SKY/WX    TMP DP  RH WIND       PRES   REMARKS
ST LOUIS INTL  CLOUDY    30   3  31 W8        30.12F WCI  22

$$
MOZ072>076-082>087-097>100-106>115-130200-
...SOUTH CENTRAL AND SOUTHEAST MISSOURI...

CITY           SKY/WX    TMP DP  RH WIND       PRES   REMARKS
CAPE GIRARDEAU CLEAR     28   7  41 N5        30.15F WCI  23
POPLAR BLUFF   CLEAR     32  13  45 CALM      30.16S
WEST PLAINS    CLOUDY    30   8  39 NW5       30.15S WCI  25

$$



USA.gov is the U.S. government's official web portal to all federal, state and local government web resources and services.